Showing default

SPIP, 58298

Orbit data source: Space-Track

SPIP, 58298 is a payload satellite owned by Aerospacelab (BE) in SSO that was launched on Sat, 11 Nov 2023 UTC via an FALCON 9 launch vehicle from the Air Force Western Test Range (AFWTR). Payload-class satellites include a variety of spacecraft equipped with specific instruments for various scientific and technological missions. These include communications satellites like Starlink; space stations such as the ISS; scientific satellites like the Hubble; Earth observation satellites from companies like Planet Labs, Umbra, and HawkEye 360; GPS; miniature CubeSats for education and research; and military/defense satellites.

Loading next visibility...
Identifier
58298, 2023-174AU
Orbit
SSO
Country
Flag of BEBE / BEL
Related business
Manufacturer
Aerospacelab
Mission
Operational Commercial Imaging
Bus & Motor
VSP, Unknown motor
Mass
120 kg wet, 120 kg dry
Launch date (UTC)
2023-11-11 (2 years ago)
Launch vehicle
FALCON 9
Launch site
Air Force Western Test Range (AFWTR)
Object type
Payload
Rocket body
Debris
Shape & HBR
Box + 2 Pan, 1.0 m
Radar Cross Section
0.963 m², Large (>1 m²)

Expand to show TLE details & history
Last TLE update: 17 hours ago

TLE from 17 hours ago
0 SPIP
1 58298U 23174AU  25349.96311690  .00004328  00000-0  17284-3 0  9999
2 58298  97.4052  63.3074 0011301 111.3309 248.9136 15.25618110116829
Epoch: 2025-12-15T23:06Z
TLE epoch observation values (Epoch: 2025-12-15T23:06:53.300Z)
Latitude
-0.00006°
Longitude
-8.26882°
Altitude
494.828 km
Speed
7.616 km/s
True Right ascension
04h 13m 13s
True Declination
0° 00' 00"
Sunlit
Object was in full shadow at epoch
Visualization orbit readout
Latitude
Unknown
Longitude
Unknown
Altitude
Unknown
Speed
Unknown
Apparent Right ascension
Unknown
Apparent Declination
Unknown
Sunlit
N/A
Visualization observer readout
Local Sidereal Time
14:42:22
Azimuth
Unknown
Elevation
Unknown
Doppler factor
Unknown
Orbital elements
Apogee altitude
493.645 km
Perigee altitude
478.131 km
Semi-major axis
6,864.025 km
Eccentricity
0.00113
Inclination
97.4052°
RAAN
63.3074°
Arg. of periapsis
111.3309°
True anomaly
248.79283°
Mean anomaly
248.9136°
Eccentric anomaly
248.85321°
Mean motion
3.81658 °/min
Orbital period
94.33 mins
BSTAR
0.00017284
Loading maneuver chart data...
Computing Atmospheric mass density...
Loading historical data...
Loading historical data...
Loading historical data...
Loading historical data...
Loading historical data...
Loading historical data...
Loading historical data...

Documentation

Showing up to 5 results
|